W1JCN Weather Reports


Display with metric or nautical units.
time (UTC)temp
F
wind
direction
speed
MPH
gust
MPH
rain 1hr
in
rain 24hr
in
rain mn
in
humidity
%
barometer
mb
20260901173608 61 211 0.0 1.0 0.02 0.17 0.17 94 1015.9
20260901170008 60 0 0.0 0.0 0.00 0.15 0.15 94 1015.8
20260901165107 60 0 0.0 0.0 0.01 0.15 0.15 94 1015.5
20260901164207 60 220 0.0 2.0 0.01 0.15 0.15 94 1015.5
20260901163307 60 219 0.0 4.0 0.01 0.15 0.15 94 1015.4
20260901162407 60 220 0.0 3.0 0.01 0.15 0.15 94 1015.6
20260901161507 60 217 0.0 2.0 0.01 0.15 0.15 94 1015.8
20260901160607 60 217 0.0 1.0 0.01 0.15 0.15 94 1015.9
20260901155707 60 216 0.0 4.0 0.00 0.14 0.14 94 1016.0
20260901154807 61 0 0.0 0.0 0.00 0.14 0.14 94 1016.0
20260901153907 61 214 0.0 3.0 0.00 0.14 0.14 94 1016.0
20260901153007 61 217 0.0 1.0 0.00 0.14 0.14 94 1016.1
20260901152107 61 217 0.0 2.0 0.00 0.14 0.14 94 1016.3
20260901150308 60 216 0.0 3.0 0.00 0.14 0.14 94 1015.8
20260901144507 60 197 0.0 5.0 0.00 0.14 0.14 94 1015.8
20260901143607 60 149 0.0 3.0 0.00 0.14 0.14 94 1015.8
20260901142707 60 149 0.0 2.0 0.00 0.14 0.14 94 1015.9
20260901141807 60 0 0.0 0.0 0.00 0.14 0.14 94 1016.0
20260901135107 60 0 0.0 0.0 0.01 0.14 0.14 94 1015.9
20260901134207 60 142 0.0 1.0 0.02 0.14 0.14 94 1015.9
20260901133307 60 0 0.0 0.0 0.03 0.14 0.14 94 1016.0
20260901131507 60 142 0.0 1.0 0.04 0.14 0.14 93 1015.8
20260901130607 61 142 0.0 1.0 0.05 0.14 0.14 94 1015.9
20260901124807 61 141 0.0 1.0 0.06 0.12 0.12 94 1016.1
20260901123907 61 0 0.0 0.0 0.09 0.12 0.12 94 1016.2
20260901123007 61 0 0.0 0.0 0.09 0.11 0.11 94 1016.5
20260901122107 61 142 0.0 1.0 0.08 0.10 0.10 94 1016.5
20260901121207 61 0 0.0 0.0 0.08 0.10 0.10 94 1016.3
20260901120307 61 0 0.0 0.0 0.07 0.08 0.08 94 1016.2
20260901114507 61 0 0.0 0.0 0.04 0.04 0.04 94 1016.6
20260901113608 61 0 0.0 0.0 0.03 0.03 0.03 94 1016.6
20260901112707 61 0 0.0 0.0 0.02 0.02 0.02 93 1016.5
20260901110907 61 0 0.0 0.0 0.01 0.01 0.01 93 1016.5
20260901110007 61 0 0.0 0.0 0.00 0.00 0.00 93 1016.3
20260901105107 61 0 0.0 0.0 0.00 0.00 0.00 93 1016.1
20260901104207 61 0 0.0 0.0 0.00 0.00 0.00 93 1016.1
20260901103307 61 0 0.0 0.0 0.00 0.00 0.00 93 1016.0
20260901101507 61 0 0.0 0.0 0.00 0.00 0.00 93 1015.8
20260901100607 61 0 0.0 0.0 0.00 0.00 0.00 93 1015.5
20260901095707 61 0 0.0 0.0 0.00 0.00 0.00 93 1015.4
20260901094807 61 0 0.0 0.0 0.00 0.00 0.00 93 1015.5
20260901093907 61 0 0.0 0.0 0.00 0.00 0.00 93 1015.6
20260901093006 61 0 0.0 0.0 0.00 0.00 0.00 93 1015.6
20260901092107 61 0 0.0 0.0 0.00 0.00 0.00 93 1015.5
20260901091206 61 0 0.0 0.0 0.00 0.00 0.00 93 1015.6
20260901085407 61 0 0.0 0.0 0.00 0.00 0.00 93 1015.9
20260901084506 61 0 0.0 0.0 0.00 0.00 0.00 93 1015.8
20260901083606 61 0 0.0 0.0 0.00 0.00 0.00 93 1015.7
20260901080006 61 0 0.0 0.0 0.00 0.00 0.00 92 1015.7
20260901075106 61 0 0.0 0.0 0.00 0.00 0.00 92 1015.8
20260901073306 61 0 0.0 0.0 0.00 0.00 0.00 92 1015.9
20260901071506 61 0 0.0 0.0 0.00 0.00 0.00 92 1015.8
20260901070606 61 0 0.0 0.0 0.00 0.00 0.00 92 1016.1
20260901065706 61 0 0.0 0.0 0.00 0.00 0.00 92 1016.1
20260901064806 61 0 0.0 0.0 0.00 0.00 0.00 92 1016.2
20260901063906 61 0 0.0 0.0 0.00 0.00 0.00 92 1016.2
20260901063006 61 0 0.0 0.0 0.00 0.00 0.00 92 1016.1
20260901062106 61 0 0.0 0.0 0.00 0.00 0.00 92 1016.3
20260901060306 61 0 0.0 0.0 0.00 0.00 0.00 92 1016.6
20260901055406 61 0 0.0 0.0 0.00 0.00 0.00 92 1016.6
20260901053606 61 0 0.0 0.0 0.00 0.00 0.00 92 1016.4
20260901052706 61 0 0.0 0.0 0.00 0.00 0.00 92 1016.6
20260901051806 61 0 0.0 0.0 0.00 0.00 0.00 92 1016.7
20260901050906 61 0 0.0 0.0 0.00 0.00 0.00 92 1016.7
20260901050006 61 0 0.0 0.0 0.00 0.00 0.00 92 1016.6
20260901044206 61 0 0.0 0.0 0.00 0.00 0.00 92 1016.7
20260901043306 61 0 0.0 0.0 0.00 0.00 0.00 92 1016.4
20260901042406 61 0 0.0 0.0 0.00 0.00 0.00 92 1016.6
20260901041506 61 0 0.0 0.0 0.00 0.00 0.00 92 1016.5
20260901040606 61 0 0.0 0.0 0.00 0.00 0.00 92 1016.4
20260901035706 61 0 0.0 0.0 0.00 0.00 0.00 92 1016.5
20260901034806 61 0 0.0 0.0 0.00 0.00 0.00 92 1016.3
20260901033906 61 0 0.0 0.0 0.00 0.00 0.00 92 1016.5
20260901033006 60 0 0.0 0.0 0.00 0.00 0.00 92 1016.6
20260901032106 60 0 0.0 0.0 0.00 0.00 0.00 92 1016.6
20260901031206 60 0 0.0 0.0 0.00 0.00 0.00 92 1016.5
20260901030306 60 0 0.0 0.0 0.00 0.00 0.00 91 1016.6
20260901025406 60 0 0.0 0.0 0.00 0.00 0.00 91 1016.7
20260901024506 60 0 0.0 0.0 0.00 0.00 0.00 91 1016.7
20260901023606 60 0 0.0 0.0 0.00 0.00 0.00 91 1016.7
20260901021806 61 0 0.0 0.0 0.00 0.00 0.00 90 1016.7
20260901020006 61 0 0.0 0.0 0.00 0.00 0.00 89 1016.6
20260901015106 61 0 0.0 0.0 0.00 0.00 0.00 89 1016.7
20260901014206 62 0 0.0 0.0 0.00 0.00 0.00 89 1016.9
20260901013306 62 0 0.0 0.0 0.00 0.00 0.00 88 1016.8
20260901012406 62 0 0.0 0.0 0.00 0.00 0.00 88 1016.7
20260901011506 63 0 0.0 0.0 0.00 0.00 0.00 88 1016.7
20260901005706 63 0 0.0 0.0 0.00 0.00 0.00 87 1016.7
20260901003006 64 0 0.0 0.0 0.00 0.00 0.00 86 1016.8
20260901001206 65 0 0.0 0.0 0.00 0.00 0.00 85 1016.7
20260901000306 66 0 0.0 0.0 0.00 0.00 0.00 84 1016.6
20260831235406 66 0 0.0 0.0 0.00 0.00 0.00 84 1016.6
20260831234506 66 0 0.0 0.0 0.00 0.00 0.00 83 1016.6
20260831233606 67 0 0.0 0.0 0.00 0.00 0.00 82 1016.7
20260831232705 67 0 0.0 0.0 0.00 0.00 0.00 82 1016.7
20260831231806 68 0 0.0 0.0 0.00 0.00 0.00 81 1016.9
20260831230905 68 0 0.0 0.0 0.00 0.00 0.00 80 1017.0
20260831230005 69 0 0.0 0.0 0.00 0.00 0.00 81 1017.1
20260831225105 69 0 0.0 0.0 0.00 0.00 0.00 80 1017.1
20260831224205 69 0 0.0 0.0 0.00 0.00 0.00 78 1017.2
20260831223305 70 0 0.0 0.0 0.00 0.00 0.00 77 1017.1
20260831222405 70 0 0.0 0.0 0.00 0.00 0.00 75 1017.2
20260831221505 70 0 0.0 0.0 0.00 0.00 0.00 76 1017.2
20260831220605 71 0 0.0 0.0 0.00 0.00 0.00 73 1017.1
20260831215705 71 0 0.0 0.0 0.00 0.00 0.00 72 1017.1
20260831214805 71 0 0.0 0.0 0.00 0.00 0.00 69 1017.0
20260831213905 72 0 0.0 0.0 0.00 0.00 0.00 73 1016.9
20260831213005 72 0 0.0 0.0 0.00 0.00 0.00 70 1016.9
20260831212105 72 142 0.0 2.0 0.00 0.00 0.00 64 1016.8
20260831211205 72 141 0.0 3.0 0.00 0.00 0.00 66 1016.8
20260831210305 72 141 0.0 2.0 0.00 0.00 0.00 65 1016.9
20260831205405 73 141 0.0 2.0 0.00 0.00 0.00 64 1016.8
20260831204505 73 140 0.0 3.0 0.00 0.00 0.00 63 1017.0
20260831203605 73 139 0.0 4.0 0.00 0.00 0.00 63 1017.3
20260831202705 73 0 0.0 0.0 0.00 0.00 0.00 64 1017.2
20260831201805 73 0 0.0 0.0 0.00 0.00 0.00 60 1017.2
20260831200905 73 110 0.0 2.0 0.00 0.00 0.00 61 1017.2
20260831195105 74 172 0.0 4.0 0.00 0.00 0.00 60 1017.2
20260831194205 74 165 0.0 5.0 0.00 0.00 0.00 61 1017.4
20260831191505 74 168 0.0 4.0 0.00 0.00 0.00 59 1017.6
20260831190605 74 169 0.0 2.0 0.00 0.00 0.00 64 1017.6
20260831185705 74 169 0.0 2.0 0.00 0.00 0.00 60 1017.6
20260831184805 74 164 0.0 4.0 0.00 0.00 0.00 63 1017.6
20260831183905 74 154 0.0 2.0 0.00 0.00 0.00 63 1017.7
20260831183005 74 149 0.0 6.0 0.00 0.00 0.00 62 1017.8
20260831181205 73 322 0.0 4.0 0.00 0.00 0.00 62 1017.9